Regional Weather Roundup
Issued by NWS Charleston, SC

Current Version | Previous Version | Graphics & Text | Print | Product List | Glossary On
Versions: 1 2 3 4 5 6 7 8 9 10 11 12 13 14 15 16 17 18 19 20 21 22 23 24 25 26 27 28 29 30 31 32 33 34 35 36 37 38 39 40 41 42 43 44 45 46 47 48 49 50
000
ASUS42 KCHS 251910
RWRCHS
REGIONAL WEATHER ROUNDUP
NATIONAL WEATHER SERVICE CHARLESTON SC
200 PM EST TUE NOV 25 2014

NOTE: "FAIR" INDICATES FEW OR NO CLOUDS BELOW 12,000 FEET WITH NO
SIGNIFICANT WEATHER AND/OR OBSTRUCTIONS TO VISIBILITY.

NOT ALL STATIONS ARE QUALITY CONTROLLED BY THE NATIONAL
WEATHER SERVICE. USE DATA WITH CAUTION...ESPECIALLY
DEWPOINT OBSERVATIONS.

SCZ027-030-031-034>040-042>050-252000-
...SOUTHEAST SOUTH CAROLINA...

CITY           SKY/WX    TMP DP  RH WIND       PRES   REMARKS
N CHARLESTON   CLOUDY    66  63  88 CALM      30.00F
WATERFRONT PRK   N/A     63 N/A N/A SE3         N/A
MOUNT PLEASANT MOCLDY    64  64 100 CALM      29.99F
JOHNS ISLAND   MOCLDY    64  64 100 CALM      30.01R
PINOPOLIS        N/A     64  61  88 CALM      29.92F
MONCKS CORNER  MOCLDY    66  64  94 CALM      29.99F
SUMMERVILLE    CLOUDY    64  64 100 CALM      30.01R
BEAUFORT MCAS  CLOUDY    64  61  90 NW5       30.01S
BEAUFORT ARPT  CLOUDY    63  63 100 CALM      30.01S
HILTON HEAD IS PTSUNNY   63  63 100 CALM      30.02S
WALTERBORO     CLOUDY    63 N/A N/A CALM      30.02R
ALLENDALE      CLOUDY    59  57  94 CALM      30.01F

...SOUTHERN MIDLANDS AND PEE DEE...

CITY           SKY/WX    TMP DP  RH WIND       PRES   REMARKS
GEORGETOWN     NOT AVBL
KINGSTREE      NOT AVBL
ORANGEBURG     CLOUDY    63  59  87 NW6       30.01S
BARNWELL       CLOUDY    59  55  88 NW3       30.03S
AIKEN          LGT RAIN  57  50  77 SW3       30.05F
MANNING        NOT AVBL
COLUMBIA       LGT RAIN  62  54  74 SW5       30.01R
SUMTER         CLOUDY    63  60  91 SW5       29.99R
FLORENCE       LGT RAIN  63  61  93 SW3       29.98F
MYRTLE BEACH   CLOUDY    64  61  88 NW6       30.00F
N MYRTLE BEACH CLOUDY    65  62  90 NW3       29.99F

$$

GAZ063-065-086>088-099>101-113>116-118-119-134>141-150-252000-
...SOUTHEAST GEORGIA...

CITY           SKY/WX    TMP DP  RH WIND       PRES   REMARKS
SAVANNAH ARPT  DRIZZLE   66  61  84 E3        29.99F
HUNTER AAF     CLOUDY    64  64  99 NE5       29.97F
FORT STEWART   CLOUDY    59  58  94 NW7       29.98F
STATESBORO     NOT AVBL
SYLVANIA       LGT RAIN  57  55  91 N6        30.02F
CLAXTON        CLOUDY    59  55  88 N3        30.01F

...CSRA...CENTRAL AND FAR SOUTHEAST GEORGIA...

CITY           SKY/WX    TMP DP  RH WIND       PRES   REMARKS
THOMSON        CLOUDY    57  49  73 CALM      30.06F
AUGUSTA-BUSH   CLOUDY    57  47  69 CALM      30.02F
AUGUSTA-DANIEL LGT RAIN  59  44  57 CALM      30.02F
SWAINSBORO     LGT RAIN  57  57 100 NW5       30.05F
VIDALIA        CLOUDY    54  54 100 NW8       30.03S
HAZLEHURST     CLOUDY    56  54  92 N9        30.02S
ALMA           CLOUDY    57  51  80 N7        30.00F
WAYCROSS       LGT RAIN  62  61  99 N7        29.99F
JESUP          LGT RAIN  63  61  94 CALM      29.99F
BAXLEY         LGT RAIN  57  52  82 N7        30.01S
BRUNSWICK      CLOUDY    64  61  88 NE6       29.99F
SAINT SIMONS   CLOUDY    64  60  87 NE6       29.98F

$$

SCZ027-028-034-036>038-045-046-048>050-GAZ119-141-252000-
...LAKE AND SUPPLEMENTAL COASTAL OBSERVATIONS...

STATION/POSITION TIME  TEMP    WIND        PRES    WAVE   SWELL
                       AIR SEA DIR/SP/G            HT/PER HT/PER/DIR
                 (UTC) (F)     (DEG/KT/KT) (MB)    (FT/S) (FT/S/D)
UPR LAKE MARION  NOT AVBL
WINYAH BAY       1800   63     300/  6     1017.0S
LAKE MURRAY      1800   59     260/  2/  3 1015.6F
ACE BASIN NERRS  1800   62        CALM     1016.0F
FORT PULASKI     1900   60      50/  2/  2 1016.3F
SAPELO ISLAND    NOT AVBL

$$

ANZ835-935-AMZ111-154-330-350-352-354-370-450-454-472-252000-
...C-MAN AND BUOY OBSERVATIONS...

STATION/POSITION TIME  TEMP    WIND        PRES    WAVE   SWELL
                       AIR SEA DIR/SP/G            HT/PER HT/PER/DIR
                 (UTC) (F)     (DEG/KT/KT) (MB)    (FT/S) (FT/S/D)
FOLLY BEACH CMAN 1800   63     360/  3/  4 1016.6F
BUOY 41004       1900   68 74  310/  8/ 10 1015.5F   5/ 8   5/ 8
BUOY 41008       1900   65 64   40/ 10/ 12 1014.8F   3/10   2/110/10
CAPERS NEARSHORE 1800   59      20/  2/  4   N/A
FRIPP NEARSHORE  NOT AVBL


STATION/POSITION TIME  TEMP    WIND        PRES    WAVE   SWELL
                       AIR SEA DIR/SP/G            HT/PER HT/PER/DIR
                 (UTC) (F)     (DEG/KT/KT) (MB)    (FT/S) (FT/S/D)
5E ST. MARYS GA  1900      62                N/A     3/10   2/120/11
FRYING PAN BUOY  1900   67 70  290/  6/  8 1017.2S   4/ 9   3/130/ 9
BUOY 41025       1900   69     320/ 10/ 14 1016.3F   5/ 8   5/130/ 8
CAPE LOOKOUT NC  1900   65     300/  6/  7 1016.8R
BUOY 41002       1805   75 74  190/ 17/ 21 1017.8F   6/ 8   3/110/ 8
BUOY 41010       1900   79 78  170/ 17/ 19 1015.1R   6/ 9   3/120/ 9
ST AUGUSTINE FL  1900   65      20/ 11/ 12 1014.5F


$$



USA.gov is the U.S. government's official web portal to all federal, state and local government web resources and services.